• în România
  • Lista ţărilor
  • Pe 7 zile
  • Temperatura apei
  • Hartă satelitară
  • Meteo pe hartă
  • Widget-uri
  • user-avatar
    Intrare

    Meteo pe oră la Batina

    Astăzi, 23 Mai, Marţi

    Timp Temperatura Precipitaţii Vânt Presiune Umiditate
    00:00 +19°C° 0 mm 1 m/s 671 mmHg 58%
    01:00 +19°C° 0 mm 1 m/s 671 mmHg 58%
    02:00 +18°C° 0 mm 1 m/s 671 mmHg 59%
    03:00 +18°C° 0 mm 1 m/s 671 mmHg 60%
    04:00 +19°C° 0,1 mm 1 m/s 671 mmHg 56%
    05:00 +21°C° 0,1 mm 1 m/s 672 mmHg 52%
    06:00 +22°C° 0,1 mm 1 m/s 672 mmHg 48%
    07:00 +23°C° 0,2 mm 1 m/s 673 mmHg 43%
    08:00 +25°C° 0,2 mm 2 m/s 673 mmHg 37%
    09:00 +26°C° 0,2 mm 2 m/s 674 mmHg 32%
    10:00 +27°C° 0,2 mm 2 m/s 674 mmHg 32%
    11:00 +27°C° 0,2 mm 3 m/s 674 mmHg 31%
    12:00 +28°C° 0,2 mm 4 m/s 674 mmHg 30%
    13:00 +27°C° 0,1 mm 3 m/s 674 mmHg 32%
    14:00 +27°C° 0,1 mm 3 m/s 673 mmHg 34%
    15:00 +26°C° 0,1 mm 3 m/s 673 mmHg 36%
    16:00 +25°C° 0 mm 3 m/s 673 mmHg 39%
    17:00 +25°C° 0 mm 2 m/s 673 mmHg 41%
    18:00 +24°C° 0 mm 2 m/s 673 mmHg 44%
    19:00 +21°C° 0,3 mm 2 m/s 673 mmHg 51%
    20:00 +21°C° 0,3 mm 1 m/s 673 mmHg 57%
    21:00 +20°C° 0,3 mm 1 m/s 673 mmHg 64%
    22:00 +19°C° 0,1 mm 1 m/s 673 mmHg 67%
    23:00 +18°C° 0,1 mm 1 m/s 672 mmHg 70%

    Mâine, 24 Mai, Miercuri

    Timp Temperatura Precipitaţii Vânt Presiune Umiditate
    00:00 +18°C° 0,1 mm 1 m/s 672 mmHg 72%
    01:00 +16°C° 0,1 mm 1 m/s 672 mmHg 74%
    02:00 +16°C° 0,1 mm 1 m/s 671 mmHg 75%
    03:00 +16°C° 0,1 mm 1 m/s 671 mmHg 76%
    04:00 +18°C° 0 mm 1 m/s 672 mmHg 71%
    05:00 +19°C° 0 mm 1 m/s 672 mmHg 66%
    06:00 +20°C° 0 mm 1 m/s 673 mmHg 61%
    07:00 +22°C° 0 mm 1 m/s 673 mmHg 54%
    08:00 +24°C° 0 mm 1 m/s 674 mmHg 47%
    09:00 +26°C° 0 mm 1 m/s 674 mmHg 39%
    10:00 +27°C° 0 mm 1 m/s 674 mmHg 35%
    11:00 +28°C° 0 mm 2 m/s 674 mmHg 30%
    12:00 +29°C° 0 mm 2 m/s 674 mmHg 25%
    13:00 +29°C° 0 mm 2 m/s 674 mmHg 25%
    14:00 +29°C° 0 mm 2 m/s 674 mmHg 24%
    15:00 +30°C° 0 mm 3 m/s 674 mmHg 24%
    16:00 +29°C° 0 mm 3 m/s 673 mmHg 27%
    17:00 +28°C° 0 mm 3 m/s 673 mmHg 30%
    18:00 +27°C° 0 mm 2 m/s 673 mmHg 33%
    19:00 +25°C° 0 mm 2 m/s 673 mmHg 40%
    20:00 +23°C° 0 mm 2 m/s 673 mmHg 47%
    21:00 +21°C° 0 mm 1 m/s 673 mmHg 53%
    22:00 +21°C° 0 mm 1 m/s 672 mmHg 55%
    23:00 +20°C° 0 mm 1 m/s 672 mmHg 57%

    Poimâine, 25 Mai, Joi

    Timp Temperatura Precipitaţii Vânt Presiune Umiditate
    00:00 +19°C° 0 mm 1 m/s 672 mmHg 59%
    01:00 +19°C° 0 mm 1 m/s 672 mmHg 60%
    02:00 +19°C° 0 mm 1 m/s 671 mmHg 60%
    03:00 +18°C° 0 mm 1 m/s 671 mmHg 60%
    04:00 +19°C° 0 mm 1 m/s 672 mmHg 56%
    05:00 +20°C° 0 mm 2 m/s 672 mmHg 52%
    06:00 +21°C° 0 mm 2 m/s 673 mmHg 48%
    07:00 +24°C° 0 mm 2 m/s 673 mmHg 42%
    08:00 +25°C° 0 mm 3 m/s 674 mmHg 37%
    09:00 +27°C° 0 mm 4 m/s 674 mmHg 32%
    10:00 +28°C° 0 mm 4 m/s 674 mmHg 29%
    11:00 +30°C° 0 mm 4 m/s 674 mmHg 27%
    12:00 +32°C° 0 mm 4 m/s 674 mmHg 25%
    13:00 +30°C° 0 mm 4 m/s 674 mmHg 25%
    14:00 +30°C° 0 mm 4 m/s 673 mmHg 26%
    15:00 +30°C° 0 mm 4 m/s 673 mmHg 27%
    16:00 +29°C° 0,3 mm 3 m/s 673 mmHg 30%
    17:00 +28°C° 0,3 mm 3 m/s 672 mmHg 33%
    18:00 +27°C° 0,3 mm 2 m/s 672 mmHg 36%
    19:00 +25°C° 0,1 mm 2 m/s 672 mmHg 42%
    20:00 +23°C° 0,1 mm 1 m/s 672 mmHg 48%
    21:00 +21°C° 0,1 mm 1 m/s 672 mmHg 54%
    22:00 +21°C° 0,1 mm 1 m/s 672 mmHg 54%
    23:00 +21°C° 0,1 mm 1 m/s 672 mmHg 54%

    26 Mai, Vineri

    Timp Temperatura Precipitaţii Vânt Presiune Umiditate
    00:00 +20°C° 0,1 mm 2 m/s 672 mmHg 54%
    01:00 +20°C° 0 mm 2 m/s 672 mmHg 55%
    02:00 +20°C° 0 mm 2 m/s 671 mmHg 56%
    03:00 +20°C° 0 mm 2 m/s 671 mmHg 58%
    04:00 +20°C° 0 mm 2 m/s 671 mmHg 55%
    05:00 +21°C° 0 mm 2 m/s 671 mmHg 52%
    06:00 +23°C° 0 mm 2 m/s 671 mmHg 49%
    07:00 +25°C° 0 mm 2 m/s 672 mmHg 42%
    08:00 +28°C° 0 mm 3 m/s 672 mmHg 34%
    09:00 +30°C° 0 mm 4 m/s 673 mmHg 26%
    10:00 +32°C° 0 mm 4 m/s 673 mmHg 24%
    11:00 +33°C° 0 mm 4 m/s 673 mmHg 23%
    12:00 +34°C° 0 mm 5 m/s 673 mmHg 21%
    13:00 +33°C° 0,1 mm 4 m/s 672 mmHg 23%
    14:00 +33°C° 0,1 mm 4 m/s 672 mmHg 25%
    15:00 +32°C° 0,1 mm 4 m/s 671 mmHg 27%
    16:00 +30°C° 0 mm 3 m/s 671 mmHg 29%
    17:00 +29°C° 0 mm 2 m/s 671 mmHg 31%
    18:00 +29°C° 0 mm 1 m/s 671 mmHg 32%
    19:00 +27°C° 0,1 mm 1 m/s 671 mmHg 36%
    20:00 +25°C° 0,1 mm 1 m/s 671 mmHg 40%
    21:00 +24°C° 0,1 mm 1 m/s 671 mmHg 43%
    22:00 +23°C° 0,1 mm 2 m/s 671 mmHg 45%
    23:00 +23°C° 0,1 mm 2 m/s 670 mmHg 47%

    27 Mai, Sâmbătă

    Timp Temperatura Precipitaţii Vânt Presiune Umiditate
    00:00 +23°C° 0,1 mm 2 m/s 670 mmHg 49%
    01:00 +21°C° 0,1 mm 2 m/s 670 mmHg 51%
    02:00 +21°C° 0,1 mm 2 m/s 670 mmHg 52%
    03:00 +20°C° 0,1 mm 2 m/s 669 mmHg 54%
    04:00 +21°C° 0 mm 2 m/s 670 mmHg 51%
    05:00 +23°C° 0 mm 2 m/s 670 mmHg 48%
    06:00 +24°C° 0 mm 2 m/s 670 mmHg 45%
    07:00 +26°C° 0 mm 3 m/s 671 mmHg 37%
    08:00 +29°C° 0 mm 4 m/s 672 mmHg 30%
    09:00 +32°C° 0 mm 5 m/s 672 mmHg 22%
    10:00 +33°C° 0 mm 6 m/s 672 mmHg 20%
    11:00 +34°C° 0 mm 6 m/s 672 mmHg 18%
    12:00 +35°C° 0 mm 7 m/s 672 mmHg 16%
    13:00 +35°C° 0 mm 7 m/s 672 mmHg 16%
    14:00 +35°C° 0 mm 6 m/s 672 mmHg 16%
    15:00 +35°C° 0 mm 6 m/s 671 mmHg 15%
    16:00 +34°C° 0 mm 5 m/s 671 mmHg 18%
    17:00 +33°C° 0 mm 4 m/s 671 mmHg 20%
    18:00 +31°C° 0 mm 3 m/s 670 mmHg 23%
    19:00 +29°C° 0 mm 3 m/s 670 mmHg 27%
    20:00 +27°C° 0 mm 3 m/s 670 mmHg 32%
    21:00 +26°C° 0 mm 3 m/s 670 mmHg 37%
    22:00 +25°C° 0 mm 3 m/s 670 mmHg 39%
    23:00 +24°C° 0 mm 3 m/s 670 mmHg 40%

    28 Mai, Duminică

    Timp Temperatura Precipitaţii Vânt Presiune Umiditate
    00:00 +24°C° 0 mm 2 m/s 669 mmHg 42%
    01:00 +24°C° 0 mm 3 m/s 669 mmHg 41%
    02:00 +22°C° 0 mm 3 m/s 669 mmHg 40%
    03:00 +22°C° 0 mm 3 m/s 669 mmHg 39%
    04:00 +24°C° 0 mm 3 m/s 669 mmHg 37%
    05:00 +25°C° 0 mm 3 m/s 670 mmHg 34%
    06:00 +26°C° 0 mm 3 m/s 670 mmHg 31%
    07:00 +28°C° 0 mm 4 m/s 671 mmHg 26%
    08:00 +32°C° 0 mm 5 m/s 671 mmHg 21%
    09:00 +34°C° 0 mm 5 m/s 672 mmHg 16%
    10:00 +35°C° 0 mm 5 m/s 672 mmHg 15%
    11:00 +36°C° 0 mm 6 m/s 672 mmHg 13%
    12:00 +38°C° 0 mm 6 m/s 672 mmHg 11%
    13:00 +37°C° 0 mm 5 m/s 671 mmHg 11%
    14:00 +37°C° 0 mm 5 m/s 671 mmHg 10%
    15:00 +37°C° 0 mm 5 m/s 671 mmHg 10%
    16:00 +36°C° 0 mm 4 m/s 671 mmHg 13%
    17:00 +34°C° 0 mm 3 m/s 670 mmHg 16%
    18:00 +32°C° 0 mm 2 m/s 670 mmHg 20%
    19:00 +30°C° 0 mm 2 m/s 670 mmHg 26%
    20:00 +28°C° 0 mm 2 m/s 669 mmHg 32%
    21:00 +26°C° 0 mm 2 m/s 669 mmHg 39%
    22:00 +25°C° 0 mm 2 m/s 669 mmHg 40%
    23:00 +25°C° 0 mm 2 m/s 668 mmHg 41%
    Arată mai mult